Hourly Data Report for November 03, 2017

All times are specified in Local Standard Time (LST). Add 1 hour to adjust for Daylight Saving Time where and when it is observed.

DAUPHIN
MANITOBA

51°06'03.000" N
100°03'09.000" W
304.50 m
5040689
71036
YDN

Download Data

Hourly Data (November 2017)
Hourly Data Report for November 3, 2017
Temp Definition
°C
Dew Point Temp Definition
°C
Rel Hum Definition
%
Wind Dir Definition
10's deg

Wind Spd Definition
km/h
Visibility Definition
km
Stn Press Definition
kPa
Hmdx Definition


Wind Chill Definition


Weather Definition


TIME
00:00 Legend Double Dagger -4.2 -6.5 84 14 4 16.1 99.20   -6 LegendNANA
01:00 Legend Double Dagger -5.9 -7.1 91 30 4 16.1 99.23   -8 LegendNANA
02:00 Legend Double Dagger -6.4 -8.5 85 25 9 16.1 99.29   -11 LegendNANA
03:00 Legend Double Dagger -6.3 -8.0 88 28 4 16.1 99.29   -8 LegendNANA
04:00 Legend Double Dagger -5.4 -7.8 83 28 5 16.1 99.28   -8 LegendNANA
05:00 Legend Double Dagger -5.6 -7.6 86 35 8 16.1 99.28   -9 LegendNANA
06:00 Legend Double Dagger -5.6 -7.9 84 31 5 16.1 99.30   -8 Snow
07:00 Legend Double Dagger -8.1 -9.6 89 29 8 16.1 99.32   -12 LegendNANA
08:00 Legend Double Dagger -8.4 -9.2 94 31 4 16.1 99.32   -11 Snow
09:00 Legend Double Dagger -6.3 -6.8 96 1 8 16.1 99.32   -10 Snow
10:00 Legend Double Dagger -6.1 -7.1 93 2 4 16.1 99.35   -8 Snow
11:00 Legend Double Dagger -5.3 -6.4 92 3 5 9.7 99.35   -8 Snow
12:00 Legend Double Dagger -4.5 -5.9 90 2 9 16.1 99.30   -8 Snow
13:00 Legend Double Dagger -3.3 -5.1 88 2 9 16.1 99.25   -7 LegendNANA
14:00 Legend Double Dagger -2.9 -6.2 78 6 8 16.1 99.19   -6 LegendNANA
15:00 Legend Double Dagger -2.7 -6.2 77 8 5 16.1 99.13   -5 LegendNANA
16:00 Legend Double Dagger -3.0 -6.2 79 10 15 16.1 99.11   -8 LegendNANA
17:00 Legend Double Dagger -3.5 -6.8 78 12 18 16.1 99.08   -9 LegendNANA
18:00 Legend Double Dagger -4.0 -6.7 82 12 18 16.1 98.98   -10 LegendNANA
19:00 Legend Double Dagger -4.1 -6.9 81 14 17 16.1 98.96   -10 LegendNANA
20:00 Legend Double Dagger -4.3 -7.0 82 11 13 16.1 98.95   -9 LegendNANA
21:00 Legend Double Dagger -4.4 -6.7 84 11 13 16.1 98.91   -9 LegendNANA
22:00 Legend Double Dagger -4.5 -6.4 87 11 15 16.1 98.83   -10 LegendNANA
23:00 Legend Double Dagger -4.4 -6.4 86 11 9 16.1 98.78   -8 LegendNANA

Notes on Data Quality.

Legend

  • E = Estimated
  • M = Missing
  • NA = Not Available
  • ‡ = Partner data that is not subject to review by the National Climate Archives
Date modified: